QPF
0.01 0.04 0.09 0.10 0.11 0.08 0.03 0.00 0.00 0.00 0.00 0.00 0.00 0.00 0.00 0.00 0.01 0.05 0.12 0.10 0.07 0.06 0.07 0.11 0.15 0.17 0.16 0.15 0.14 0.16 0.18 0.18 0.17 0.17 0.15 0.15 0.16 0.16 0.15 0.14 0.12 0.14 0.14 0.12 0.09 0.06 0.04 0.04 0.05
0.03 0.08 0.15 0.14 0.11 0.06 0.01 0.00 0.00 0.00 0.00 0.00 0.00 0.00 0.00 0.00 0.00 0.03 0.07 0.06 0.03 0.03 0.05 0.09 0.12 0.13 0.11 0.12 0.13 0.12 0.13 0.15 0.16 0.16 0.16 0.16 0.16 0.16 0.14 0.13 0.13 0.14 0.13 0.11 0.08 0.06 0.04 0.04 0.03
0.06 0.11 0.15 0.14 0.09 0.03 0.00 0.00 0.00 0.00 0.00 0.00 0.00 0.00 0.01 0.01 0.01 0.03 0.05 0.02 0.02 0.02 0.04 0.05 0.06 0.07 0.08 0.08 0.09 0.08 0.08 0.08 0.11 0.17 0.20 0.19 0.18 0.17 0.17 0.16 0.14 0.15 0.13 0.10 0.07 0.04 0.04 0.04 0.03
0.10 0.14 0.18 0.14 0.04 0.01 0.00 0.00 0.00 0.00 0.00 0.00 0.00 0.01 0.01 0.01 0.01 0.03 0.04 0.02 0.01 0.02 0.02 0.03 0.04 0.05 0.05 0.06 0.06 0.07 0.06 0.05 0.08 0.13 0.16 0.17 0.18 0.19 0.18 0.16 0.15 0.13 0.10 0.08 0.06 0.04 0.03 0.03 0.03
0.10 0.19 0.23 0.11 0.01 0.00 0.00 0.00 0.00 0.00 0.00 0.00 0.00 0.01 0.03 0.03 0.02 0.03 0.02 0.02 0.01 0.02 0.02 0.01 0.01 0.03 0.04 0.05 0.06 0.07 0.06 0.04 0.05 0.07 0.09 0.09 0.11 0.12 0.14 0.16 0.14 0.13 0.11 0.08 0.05 0.03 0.02 0.02 0.03
0.07 0.19 0.13 0.04 0.01 0.00 0.00 0.00 0.00 0.00 0.00 0.00 0.00 0.01 0.03 0.03 0.02 0.03 0.01 0.01 0.01 0.01 0.03 0.02 0.02 0.03 0.03 0.03 0.06 0.06 0.05 0.04 0.04 0.04 0.04 0.05 0.07 0.09 0.11 0.11 0.12 0.12 0.11 0.08 0.05 0.03 0.02 0.02 0.02
0.03 0.10 0.07 0.02 0.01 0.01 0.00 0.00 0.00 0.00 0.00 0.00 0.00 0.01 0.03 0.03 0.03 0.02 0.01 0.01 0.01 0.01 0.02 0.02 0.01 0.02 0.02 0.02 0.07 0.09 0.05 0.03 0.05 0.05 0.04 0.05 0.06 0.07 0.07 0.10 0.16 0.11 0.09 0.07 0.06 0.03 0.03 0.03 0.02
0.03 0.05 0.03 0.02 0.01 0.01 0.00 0.00 0.00 0.00 0.00 0.00 0.00 0.00 0.01 0.01 0.02 0.02 0.01 0.02 0.02 0.02 0.02 0.01 0.01 0.02 0.02 0.02 0.06 0.10 0.07 0.04 0.06 0.07 0.05 0.05 0.05 0.06 0.07 0.13 0.16 0.10 0.08 0.06 0.05 0.04 0.02 0.02 0.02
0.05 0.07 0.03 0.01 0.01 0.00 0.00 0.00 0.00 0.00 0.00 0.00 0.00 0.00 0.00 0.00 0.00 0.01 0.01 0.02 0.02 0.02 0.03 0.02 0.02 0.03 0.03 0.02 0.04 0.09 0.08 0.04 0.05 0.07 0.07 0.05 0.03 0.04 0.08 0.17 0.13 0.11 0.09 0.07 0.05 0.04 0.02 0.02 0.02
0.04 0.04 0.02 0.01 0.00 0.00 0.00 0.00 0.00 0.00 0.00 0.00 0.00 0.00 0.00 0.00 0.00 0.00 0.01 0.01 0.01 0.01 0.02 0.03 0.03 0.04 0.04 0.03 0.02 0.04 0.04 0.03 0.03 0.03 0.04 0.05 0.06 0.06 0.11 0.17 0.13 0.13 0.12 0.08 0.07 0.05 0.04 0.02 0.01
0.01 0.01 0.00 0.00 0.00 0.00 0.00 0.00 0.00 0.00 0.00 0.00 0.00 0.00 0.00 0.00 0.00 0.00 0.00 0.01 0.00 0.01 0.01 0.03 0.05 0.04 0.03 0.02 0.02 0.02 0.02 0.02 0.02 0.02 0.02 0.03 0.06 0.10 0.13 0.15 0.15 0.15 0.13 0.09 0.07 0.04 0.02 0.02 0.02
0.00 0.00 0.00 0.00 0.00 0.00 0.00 0.00 0.00 0.00 0.00 0.00 0.00 0.00 0.01 0.01 0.01 0.00 0.00 0.00 0.00 0.00 0.01 0.01 0.04 0.03 0.02 0.02 0.02 0.02 0.02 0.02 0.02 0.02 0.02 0.03 0.07 0.11 0.14 0.14 0.14 0.13 0.09 0.08 0.07 0.05 0.02 0.02 0.02
0.00 0.00 0.00 0.00 0.00 0.00 0.00 0.00 0.01 0.00 0.01 0.01 0.00 0.00 0.00 0.00 0.01 0.01 0.01 0.00 0.00 0.00 0.01 0.01 0.03 0.03 0.02 0.02 0.03 0.02 0.02 0.02 0.02 0.02 0.03 0.05 0.08 0.12 0.11 0.09 0.09 0.07 0.06 0.05 0.04 0.04 0.03 0.02 0.02
0.00 0.00 0.00 0.00 0.00 0.00 0.00 0.00 0.01 0.01 0.01 0.01 0.01 0.00 0.00 0.00 0.00 0.01 0.01 0.01 0.01 0.00 0.00 0.02 0.05 0.04 0.03 0.02 0.03 0.04 0.03 0.03 0.03 0.02 0.03 0.04 0.05 0.06 0.06 0.04 0.04 0.03 0.04 0.04 0.03 0.04 0.04 0.03 0.03
0.00 0.00 0.00 0.00 0.00 0.00 0.00 0.00 0.01 0.01 0.01 0.01 0.01 0.01 0.01 0.00 0.00 0.00 0.01 0.00 0.00 0.00 0.00 0.01 0.06 0.06 0.04 0.03 0.04 0.05 0.03 0.04 0.04 0.04 0.03 0.03 0.04 0.04 0.03 0.03 0.03 0.03 0.02 0.02 0.03 0.04 0.03 0.03 0.03
0.01 0.01 0.01 0.00 0.01 0.01 0.01 0.01 0.01 0.00 0.01 0.02 0.02 0.01 0.01 0.01 0.00 0.00 0.00 0.00 0.00 0.00 0.00 0.00 0.02 0.07 0.07 0.05 0.05 0.06 0.05 0.05 0.04 0.03 0.05 0.04 0.04 0.04 0.03 0.03 0.03 0.04 0.02 0.02 0.03 0.04 0.03 0.03 0.03
0.01 0.01 0.01 0.01 0.00 0.01 0.01 0.01 0.01 0.00 0.01 0.01 0.01 0.02 0.02 0.01 0.01 0.00 0.00 0.00 0.00 0.00 0.00 0.00 0.01 0.05 0.08 0.07 0.06 0.06 0.05 0.06 0.05 0.03 0.03 0.03 0.04 0.04 0.03 0.03 0.03 0.04 0.03 0.03 0.03 0.03 0.04 0.04 0.05
0.00 0.01 0.01 0.02 0.01 0.01 0.01 0.01 0.01 0.01 0.01 0.01 0.01 0.01 0.01 0.02 0.01 0.00 0.00 0.00 0.00 0.00 0.00 0.00 0.00 0.02 0.05 0.08 0.06 0.06 0.05 0.06 0.05 0.04 0.04 0.04 0.04 0.04 0.04 0.04 0.04 0.04 0.04 0.04 0.04 0.04 0.05 0.04 0.04
0.00 0.00 0.01 0.01 0.01 0.01 0.02 0.01 0.01 0.01 0.01 0.00 0.01 0.02 0.04 0.04 0.02 0.01 0.00 0.00 0.00 0.00 0.00 0.00 0.00 0.01 0.03 0.05 0.07 0.06 0.05 0.04 0.05 0.05 0.04 0.03 0.03 0.04 0.05 0.05 0.05 0.04 0.04 0.05 0.05 0.04 0.05 0.06 0.05
0.00 0.00 0.01 0.01 0.01 0.01 0.02 0.01 0.01 0.01 0.01 0.00 0.01 0.04 0.05 0.04 0.03 0.01 0.00 0.00 0.00 0.00 0.00 0.00 0.00 0.00 0.01 0.02 0.04 0.06 0.04 0.04 0.05 0.04 0.04 0.03 0.03 0.03 0.03 0.04 0.05 0.05 0.05 0.06 0.07 0.06 0.05 0.05 0.06
0.00 0.00 0.00 0.01 0.01 0.01 0.01 0.01 0.01 0.01 0.02 0.02 0.02 0.02 0.02 0.03 0.03 0.01 0.01 0.00 0.00 0.00 0.00 0.00 0.00 0.00 0.00 0.01 0.04 0.06 0.05 0.04 0.04 0.04 0.04 0.03 0.04 0.04 0.04 0.04 0.05 0.05 0.04 0.04 0.06 0.06 0.06 0.05 0.06
0.00 0.00 0.01 0.02 0.01 0.01 0.01 0.01 0.02 0.02 0.02 0.04 0.06 0.04 0.03 0.03 0.02 0.02 0.01 0.01 0.01 0.00 0.01 0.01 0.02 0.02 0.01 0.02 0.04 0.06 0.05 0.04 0.03 0.04 0.04 0.04 0.05 0.05 0.04 0.04 0.04 0.05 0.04 0.03 0.04 0.06 0.06 0.07 0.07
0.00 0.00 0.00 0.00 0.01 0.02 0.02 0.02 0.03 0.04 0.03 0.04 0.07 0.04 0.03 0.02 0.02 0.07 0.05 0.01 0.03 0.03 0.02 0.01 0.02 0.03 0.01 0.02 0.03 0.03 0.02 0.03 0.04 0.04 0.05 0.04 0.06 0.07 0.03 0.03 0.04 0.05 0.04 0.04 0.04 0.03 0.05 0.06 0.06
0.00 0.01 0.01 0.00 0.01 0.02 0.02 0.02 0.04 0.05 0.04 0.04 0.07 0.04 0.03 0.03 0.03 0.03 0.04 0.03 0.05 0.04 0.02 0.02 0.02 0.02 0.01 0.01 0.01 0.01 0.01 0.02 0.04 0.04 0.03 0.03 0.04 0.06 0.04 0.04 0.05 0.04 0.04 0.05 0.04 0.04 0.05 0.06 0.06
0.00 0.00 0.00 0.01 0.01 0.03 0.03 0.03 0.03 0.04 0.05 0.06 0.08 0.05 0.06 0.09 0.06 0.04 0.04 0.04 0.05 0.04 0.04 0.06 0.03 0.02 0.02 0.01 0.01 0.01 0.01 0.01 0.02 0.02 0.01 0.01 0.02 0.03 0.03 0.04 0.04 0.04 0.03 0.05 0.05 0.06 0.06 0.06 0.06
0.00 0.00 0.00 0.01 0.01 0.01 0.03 0.04 0.04 0.05 0.07 0.10 0.08 0.06 0.06 0.09 0.08 0.06 0.06 0.07 0.06 0.07 0.11 0.14 0.06 0.03 0.02 0.02 0.01 0.01 0.01 0.01 0.01 0.01 0.02 0.01 0.02 0.02 0.03 0.03 0.03 0.03 0.03 0.04 0.05 0.06 0.06 0.05 0.04
0.00 0.00 0.00 0.01 0.01 0.01 0.02 0.03 0.03 0.04 0.05 0.06 0.09 0.08 0.07 0.11 0.11 0.09 0.07 0.11 0.10 0.12 0.13 0.12 0.08 0.04 0.04 0.03 0.02 0.02 0.01 0.01 0.03 0.02 0.02 0.02 0.01 0.02 0.02 0.02 0.02 0.03 0.03 0.04 0.05 0.05 0.05 0.05 0.04
0.01 0.00 0.00 0.00 0.01 0.01 0.03 0.03 0.02 0.03 0.02 0.03 0.08 0.10 0.08 0.07 0.08 0.12 0.11 0.11 0.10 0.10 0.14 0.14 0.12 0.07 0.05 0.04 0.03 0.03 0.02 0.02 0.02 0.02 0.03 0.07 0.02 0.02 0.02 0.02 0.03 0.02 0.03 0.04 0.04 0.04 0.04 0.05 0.04
0.00 0.00 0.00 0.01 0.01 0.01 0.02 0.03 0.02 0.02 0.02 0.04 0.07 0.09 0.07 0.05 0.06 0.11 0.11 0.07 0.06 0.06 0.07 0.13 0.15 0.10 0.07 0.06 0.05 0.05 0.04 0.03 0.02 0.02 0.02 0.04 0.02 0.02 0.03 0.02 0.04 0.04 0.04 0.04 0.05 0.04 0.04 0.04 0.04
0.00 0.00 0.00 0.01 0.02 0.02 0.02 0.03 0.03 0.03 0.03 0.04 0.07 0.08 0.06 0.06 0.06 0.10 0.13 0.07 0.05 0.08 0.09 0.12 0.21 0.18 0.15 0.10 0.10 0.10 0.08 0.07 0.05 0.04 0.03 0.03 0.04 0.04 0.04 0.05 0.07 0.08 0.10 0.09 0.07 0.06 0.06 0.05 0.04
MSLP
1006.02 1007.06 1008.20 1009.28 1010.12 1010.60 1010.67 1010.37 1009.82 1009.18 1008.65 1008.36 1008.39 1008.72 1009.29 1009.93 1010.50 1010.86 1010.94 1010.73 1010.28 1009.71 1009.12 1008.60 1008.25 1008.06 1008.03 1008.11 1008.28 1008.49 1008.74 1009.03 1009.38 1009.79 1010.27 1010.80 1011.34 1011.88 1012.37 1012.80 1013.16 1013.47 1013.75 1014.01 1014.27 1014.53 1014.78 1015.02 1015.24
1006.39 1007.56 1008.74 1009.77 1010.49 1010.79 1010.65 1010.15 1009.43 1008.66 1008.04 1007.72 1007.74 1008.09 1008.67 1009.33 1009.92 1010.30 1010.42 1010.28 1009.95 1009.52 1009.11 1008.80 1008.66 1008.68 1008.82 1009.06 1009.32 1009.59 1009.84 1010.10 1010.37 1010.69 1011.06 1011.48 1011.92 1012.36 1012.78 1013.15 1013.47 1013.76 1014.02 1014.26 1014.51 1014.76 1015.00 1015.23 1015.44
1006.89 1008.12 1009.30 1010.24 1010.80 1010.91 1010.59 1009.91 1009.05 1008.21 1007.56 1007.22 1007.26 1007.62 1008.21 1008.87 1009.45 1009.84 1009.98 1009.90 1009.66 1009.36 1009.10 1008.96 1008.99 1009.17 1009.46 1009.80 1010.14 1010.45 1010.72 1010.95 1011.19 1011.44 1011.74 1012.08 1012.44 1012.80 1013.16 1013.48 1013.76 1014.03 1014.27 1014.52 1014.76 1015.00 1015.23 1015.45 1015.66
1007.41 1008.65 1009.76 1010.57 1010.97 1010.92 1010.45 1009.67 1008.75 1007.89 1007.26 1006.96 1007.03 1007.41 1008.00 1008.64 1009.21 1009.59 1009.74 1009.70 1009.53 1009.33 1009.19 1009.18 1009.32 1009.60 1009.97 1010.36 1010.74 1011.07 1011.34 1011.57 1011.78 1012.01 1012.27 1012.56 1012.87 1013.19 1013.50 1013.78 1014.04 1014.29 1014.52 1014.76 1015.01 1015.25 1015.48 1015.69 1015.89
1007.83 1009.01 1010.00 1010.66 1010.91 1010.73 1010.18 1009.38 1008.49 1007.71 1007.17 1006.96 1007.09 1007.50 1008.08 1008.70 1009.22 1009.58 1009.73 1009.72 1009.60 1009.48 1009.43 1009.50 1009.70 1010.02 1010.41 1010.81 1011.18 1011.50 1011.76 1011.98 1012.19 1012.41 1012.66 1012.94 1013.24 1013.53 1013.81 1014.07 1014.31 1014.54 1014.77 1015.01 1015.25 1015.50 1015.73 1015.94 1016.14
1008.04 1009.09 1009.91 1010.41 1010.53 1010.28 1009.73 1009.00 1008.24 1007.62 1007.24 1007.16 1007.37 1007.82 1008.39 1008.97 1009.45 1009.77 1009.92 1009.93 1009.86 1009.81 1009.82 1009.93 1010.16 1010.48 1010.84 1011.20 1011.52 1011.80 1012.03 1012.24 1012.46 1012.70 1012.96 1013.25 1013.54 1013.82 1014.09 1014.33 1014.55 1014.77 1014.99 1015.23 1015.48 1015.72 1015.96 1016.17 1016.35
1007.96 1008.81 1009.44 1009.78 1009.80 1009.54 1009.06 1008.48 1007.94 1007.54 1007.36 1007.45 1007.77 1008.25 1008.81 1009.34 1009.77 1010.05 1010.19 1010.22 1010.21 1010.22 1010.28 1010.44 1010.67 1010.96 1011.27 1011.56 1011.82 1012.04 1012.24 1012.44 1012.67 1012.92 1013.21 1013.51 1013.81 1014.09 1014.34 1014.56 1014.76 1014.96 1015.17 1015.40 1015.65 1015.90 1016.13 1016.34 1016.52
1007.61 1008.23 1008.65 1008.83 1008.78 1008.55 1008.20 1007.83 1007.54 1007.40 1007.46 1007.72 1008.14 1008.66 1009.19 1009.67 1010.04 1010.28 1010.41 1010.48 1010.52 1010.59 1010.72 1010.92 1011.16 1011.43 1011.68 1011.91 1012.10 1012.28 1012.44 1012.63 1012.86 1013.14 1013.45 1013.76 1014.07 1014.34 1014.57 1014.76 1014.93 1015.11 1015.29 1015.51 1015.75 1015.99 1016.23 1016.44 1016.60
1007.06 1007.45 1007.67 1007.71 1007.62 1007.44 1007.24 1007.10 1007.07 1007.19 1007.47 1007.89 1008.39 1008.92 1009.42 1009.84 1010.14 1010.35 1010.48 1010.58 1010.68 1010.83 1011.03 1011.28 1011.55 1011.81 1012.04 1012.22 1012.38 1012.51 1012.66 1012.84 1013.08 1013.37 1013.69 1014.01 1014.32 1014.57 1014.77 1014.93 1015.06 1015.20 1015.36 1015.55 1015.77 1016.01 1016.25 1016.45 1016.62
1006.49 1006.67 1006.71 1006.64 1006.51 1006.38 1006.32 1006.38 1006.57 1006.91 1007.37 1007.91 1008.47 1008.99 1009.44 1009.79 1010.03 1010.20 1010.34 1010.47 1010.64 1010.87 1011.15 1011.46 1011.77 1012.05 1012.28 1012.46 1012.60 1012.73 1012.88 1013.07 1013.31 1013.61 1013.93 1014.25 1014.54 1014.76 1014.93 1015.05 1015.15 1015.24 1015.37 1015.53 1015.74 1015.97 1016.20 1016.40 1016.57
1006.08 1006.09 1005.98 1005.81 1005.64 1005.56 1005.60 1005.79 1006.14 1006.63 1007.20 1007.80 1008.37 1008.86 1009.25 1009.53 1009.73 1009.87 1010.01 1010.18 1010.41 1010.71 1011.06 1011.44 1011.80 1012.13 1012.39 1012.59 1012.75 1012.90 1013.06 1013.26 1013.52 1013.82 1014.13 1014.44 1014.70 1014.90 1015.04 1015.12 1015.18 1015.24 1015.34 1015.48 1015.67 1015.88 1016.11 1016.31 1016.48
1005.98 1005.87 1005.65 1005.39 1005.18 1005.09 1005.17 1005.43 1005.85 1006.40 1007.00 1007.60 1008.14 1008.59 1008.92 1009.15 1009.31 1009.44 1009.58 1009.79 1010.06 1010.42 1010.83 1011.26 1011.67 1012.04 1012.35 1012.60 1012.80 1012.98 1013.18 1013.40 1013.66 1013.95 1014.25 1014.53 1014.77 1014.95 1015.06 1015.12 1015.16 1015.20 1015.28 1015.40 1015.57 1015.78 1016.00 1016.20 1016.37
1006.27 1006.09 1005.78 1005.44 1005.17 1005.04 1005.09 1005.33 1005.73 1006.25 1006.81 1007.36 1007.85 1008.24 1008.52 1008.72 1008.87 1009.00 1009.16 1009.39 1009.70 1010.08 1010.52 1010.98 1011.43 1011.84 1012.19 1012.49 1012.74 1012.97 1013.19 1013.43 1013.69 1013.97 1014.24 1014.50 1014.71 1014.87 1014.98 1015.04 1015.08 1015.13 1015.20 1015.32 1015.48 1015.67 1015.88 1016.08 1016.26
1006.94 1006.71 1006.33 1005.92 1005.57 1005.36 1005.33 1005.48 1005.78 1006.19 1006.65 1007.11 1007.52 1007.86 1008.13 1008.33 1008.49 1008.65 1008.84 1009.09 1009.41 1009.79 1010.22 1010.68 1011.13 1011.56 1011.95 1012.29 1012.59 1012.85 1013.10 1013.35 1013.59 1013.84 1014.08 1014.31 1014.50 1014.65 1014.77 1014.85 1014.92 1015.00 1015.09 1015.22 1015.38 1015.56 1015.77 1015.97 1016.15
1007.84 1007.56 1007.14 1006.66 1006.23 1005.92 1005.77 1005.78 1005.93 1006.19 1006.52 1006.86 1007.20 1007.50 1007.77 1008.00 1008.22 1008.43 1008.67 1008.93 1009.25 1009.60 1010.00 1010.42 1010.85 1011.27 1011.67 1012.03 1012.36 1012.65 1012.91 1013.15 1013.37 1013.58 1013.78 1013.96 1014.14 1014.29 1014.43 1014.56 1014.68 1014.80 1014.94 1015.09 1015.26 1015.45 1015.65 1015.84 1016.02
1008.76 1008.45 1007.99 1007.47 1006.98 1006.57 1006.29 1006.15 1006.13 1006.22 1006.39 1006.61 1006.87 1007.15 1007.44 1007.74 1008.03 1008.32 1008.61 1008.90 1009.20 1009.51 1009.85 1010.21 1010.59 1010.98 1011.37 1011.74 1012.09 1012.40 1012.66 1012.88 1013.06 1013.22 1013.36 1013.50 1013.65 1013.81 1013.98 1014.16 1014.35 1014.54 1014.73 1014.92 1015.12 1015.31 1015.51 1015.70 1015.89
1009.48 1009.16 1008.69 1008.16 1007.65 1007.19 1006.81 1006.53 1006.35 1006.26 1006.27 1006.37 1006.56 1006.82 1007.14 1007.51 1007.89 1008.26 1008.61 1008.92 1009.21 1009.47 1009.74 1010.02 1010.33 1010.68 1011.05 1011.43 1011.79 1012.11 1012.37 1012.57 1012.71 1012.81 1012.89 1012.98 1013.10 1013.26 1013.46 1013.70 1013.95 1014.21 1014.47 1014.71 1014.93 1015.14 1015.34 1015.54 1015.73
1009.87 1009.55 1009.12 1008.65 1008.18 1007.72 1007.30 1006.92 1006.60 1006.36 1006.21 1006.18 1006.29 1006.52 1006.87 1007.29 1007.75 1008.20 1008.60 1008.93 1009.19 1009.40 1009.60 1009.80 1010.05 1010.36 1010.72 1011.10 1011.48 1011.81 1012.08 1012.26 1012.36 1012.40 1012.42 1012.46 1012.54 1012.69 1012.92 1013.20 1013.51 1013.84 1014.15 1014.44 1014.69 1014.92 1015.13 1015.33 1015.54
1009.84 1009.58 1009.27 1008.93 1008.57 1008.21 1007.81 1007.40 1006.98 1006.60 1006.31 1006.14 1006.14 1006.31 1006.64 1007.10 1007.60 1008.10 1008.53 1008.87 1009.10 1009.25 1009.38 1009.51 1009.71 1009.98 1010.33 1010.73 1011.14 1011.51 1011.79 1011.97 1012.05 1012.05 1012.02 1012.00 1012.04 1012.17 1012.39 1012.70 1013.06 1013.44 1013.80 1014.12 1014.41 1014.65 1014.88 1015.09 1015.32
1009.44 1009.32 1009.20 1009.08 1008.95 1008.75 1008.46 1008.07 1007.60 1007.11 1006.66 1006.34 1006.20 1006.28 1006.55 1006.97 1007.48 1007.98 1008.41 1008.72 1008.91 1009.00 1009.06 1009.13 1009.28 1009.53 1009.89 1010.32 1010.78 1011.20 1011.53 1011.73 1011.80 1011.78 1011.71 1011.65 1011.64 1011.74 1011.94 1012.25 1012.62 1013.03 1013.42 1013.77 1014.08 1014.34 1014.57 1014.81 1015.05
1008.83 1008.91 1009.07 1009.26 1009.42 1009.47 1009.35 1009.04 1008.55 1007.97 1007.38 1006.89 1006.59 1006.51 1006.67 1007.00 1007.45 1007.90 1008.28 1008.54 1008.67 1008.69 1008.67 1008.68 1008.78 1009.02 1009.39 1009.87 1010.38 1010.87 1011.26 1011.52 1011.62 1011.60 1011.51 1011.41 1011.36 1011.41 1011.58 1011.86 1012.23 1012.63 1013.02 1013.39 1013.70 1013.98 1014.23 1014.48 1014.74
1008.19 1008.54 1009.05 1009.61 1010.12 1010.46 1010.55 1010.35 1009.88 1009.22 1008.49 1007.83 1007.34 1007.09 1007.08 1007.28 1007.61 1007.97 1008.26 1008.43 1008.47 1008.40 1008.29 1008.22 1008.28 1008.49 1008.87 1009.38 1009.96 1010.52 1011.00 1011.32 1011.47 1011.48 1011.39 1011.27 1011.18 1011.18 1011.31 1011.54 1011.87 1012.24 1012.63 1012.98 1013.30 1013.58 1013.84 1014.10 1014.38
1007.71 1008.38 1009.25 1010.20 1011.06 1011.70 1012.01 1011.93 1011.49 1010.78 1009.94 1009.12 1008.44 1008.00 1007.81 1007.85 1008.04 1008.26 1008.43 1008.48 1008.41 1008.23 1008.02 1007.86 1007.84 1008.01 1008.37 1008.90 1009.53 1010.16 1010.70 1011.10 1011.32 1011.37 1011.30 1011.17 1011.06 1011.02 1011.08 1011.27 1011.54 1011.87 1012.22 1012.55 1012.86 1013.13 1013.40 1013.67 1013.96
1007.53 1008.50 1009.71 1010.99 1012.17 1013.08 1013.58 1013.62 1013.23 1012.48 1011.56 1010.61 1009.78 1009.17 1008.82 1008.70 1008.74 1008.82 1008.85 1008.78 1008.57 1008.26 1007.93 1007.66 1007.54 1007.64 1007.96 1008.47 1009.11 1009.77 1010.38 1010.84 1011.12 1011.22 1011.19 1011.07 1010.94 1010.86 1010.88 1011.00 1011.21 1011.49 1011.80 1012.10 1012.39 1012.66 1012.92 1013.19 1013.48
1007.68 1008.89 1010.36 1011.89 1013.30 1014.39 1015.04 1015.18 1014.83 1014.09 1013.12 1012.11 1011.19 1010.47 1010.00 1009.76 1009.67 1009.62 1009.53 1009.32 1008.98 1008.54 1008.07 1007.67 1007.44 1007.43 1007.67 1008.12 1008.73 1009.40 1010.03 1010.53 1010.86 1011.01 1011.01 1010.91 1010.78 1010.68 1010.65 1010.72 1010.87 1011.10 1011.36 1011.63 1011.90 1012.15 1012.40 1012.67 1012.96
1008.14 1009.49 1011.08 1012.73 1014.24 1015.43 1016.15 1016.35 1016.05 1015.34 1014.40 1013.40 1012.47 1011.72 1011.21 1010.90 1010.72 1010.58 1010.39 1010.06 1009.61 1009.04 1008.45 1007.92 1007.55 1007.42 1007.54 1007.90 1008.44 1009.06 1009.67 1010.18 1010.53 1010.71 1010.74 1010.66 1010.53 1010.42 1010.36 1010.39 1010.51 1010.69 1010.91 1011.15 1011.40 1011.64 1011.88 1012.14 1012.42
1008.81 1010.16 1011.73 1013.36 1014.83 1015.99 1016.71 1016.94 1016.70 1016.07 1015.22 1014.30 1013.45 1012.76 1012.28 1011.97 1011.77 1011.58 1011.32 1010.92 1010.36 1009.70 1009.00 1008.35 1007.85 1007.59 1007.58 1007.81 1008.24 1008.78 1009.32 1009.80 1010.15 1010.34 1010.38 1010.32 1010.21 1010.09 1010.03 1010.03 1010.11 1010.26 1010.45 1010.67 1010.90 1011.13 1011.36 1011.61 1011.88
1009.56 1010.78 1012.19 1013.64 1014.96 1016.00 1016.66 1016.88 1016.70 1016.18 1015.48 1014.72 1014.03 1013.48 1013.09 1012.84 1012.67 1012.48 1012.19 1011.74 1011.14 1010.42 1009.64 1008.90 1008.30 1007.92 1007.77 1007.87 1008.17 1008.58 1009.03 1009.44 1009.74 1009.92 1009.96 1009.91 1009.81 1009.71 1009.64 1009.63 1009.70 1009.83 1010.01 1010.21 1010.43 1010.65 1010.87 1011.10 1011.34
1010.28 1011.26 1012.39 1013.56 1014.63 1015.47 1016.01 1016.21 1016.10 1015.73 1015.22 1014.67 1014.19 1013.82 1013.58 1013.44 1013.33 1013.16 1012.88 1012.44 1011.82 1011.08 1010.27 1009.49 1008.83 1008.36 1008.10 1008.07 1008.23 1008.50 1008.83 1009.13 1009.36 1009.49 1009.52 1009.47 1009.38 1009.29 1009.23 1009.23 1009.30 1009.42 1009.59 1009.78 1009.98 1010.19 1010.40 1010.60 1010.82
1010.90 1011.57 1012.36 1013.19 1013.96 1014.57 1014.98 1015.15 1015.11 1014.90 1014.60 1014.29 1014.04 1013.87 1013.79 1013.76 1013.71 1013.59 1013.34 1012.92 1012.33 1011.61 1010.83 1010.06 1009.38 1008.86 1008.53 1008.38 1008.40 1008.54 1008.73 1008.91 1009.05 1009.11 1009.10 1009.04 1008.96 1008.88 1008.84 1008.85 1008.92 1009.04 1009.20 1009.38 1009.57 1009.76 1009.94 1010.12 1010.30
Thickness
5828 5824 5819 5806 5786 5770 5769 5786 5797 5796 5796 5802 5804 5796 5784 5775 5765 5755 5776 5784 5784 5782 5783 5783 5783 5783 5783 5784 5785 5785 5786 5785 5784 5783 5783 5782 5781 5780 5778 5777 5776 5775 5774 5772 5771 5770 5769 5768 5767
5831 5825 5813 5798 5775 5757 5770 5793 5795 5801 5804 5808 5804 5796 5785 5778 5782 5778 5779 5783 5783 5782 5782 5782 5781 5781 5781 5782 5783 5784 5784 5784 5783 5782 5781 5780 5779 5778 5777 5776 5775 5774 5773 5771 5770 5769 5768 5767 5765
5834 5828 5806 5789 5773 5767 5778 5798 5802 5810 5815 5812 5801 5797 5788 5780 5783 5781 5783 5784 5782 5781 5781 5780 5780 5780 5780 5780 5781 5782 5783 5782 5781 5780 5779 5779 5778 5777 5775 5775 5774 5772 5771 5770 5768 5768 5767 5765 5764
5833 5818 5805 5785 5779 5795 5802 5807 5814 5810 5811 5811 5802 5790 5792 5797 5792 5789 5787 5784 5781 5780 5780 5780 5779 5779 5778 5778 5779 5780 5781 5780 5780 5779 5778 5777 5777 5775 5774 5773 5772 5771 5769 5768 5767 5767 5765 5764 5763
5832 5811 5791 5780 5791 5809 5819 5824 5823 5812 5807 5805 5801 5785 5784 5796 5798 5793 5788 5785 5782 5780 5781 5780 5779 5779 5778 5778 5778 5779 5779 5779 5779 5778 5777 5777 5776 5774 5773 5771 5770 5769 5768 5767 5766 5765 5764 5763 5762
5820 5806 5782 5777 5796 5814 5824 5829 5825 5814 5807 5805 5799 5787 5783 5796 5794 5791 5790 5786 5785 5783 5781 5780 5780 5779 5778 5778 5778 5778 5778 5778 5778 5777 5776 5775 5775 5774 5772 5771 5769 5768 5766 5765 5764 5764 5763 5762 5761
5815 5800 5786 5792 5799 5809 5823 5834 5826 5815 5809 5808 5807 5788 5785 5792 5796 5795 5791 5788 5785 5784 5782 5780 5780 5779 5778 5778 5778 5778 5777 5777 5777 5776 5775 5775 5774 5773 5771 5769 5768 5767 5766 5764 5763 5763 5762 5761 5760
5830 5807 5796 5799 5802 5810 5832 5838 5834 5825 5816 5821 5815 5792 5784 5794 5800 5797 5791 5787 5785 5783 5782 5781 5780 5779 5779 5778 5778 5778 5777 5777 5776 5775 5774 5774 5773 5772 5771 5769 5767 5766 5764 5763 5762 5762 5761 5760 5759
5841 5804 5794 5806 5812 5820 5837 5834 5835 5838 5827 5822 5820 5811 5807 5807 5803 5794 5787 5784 5782 5782 5782 5782 5781 5779 5779 5778 5778 5778 5777 5776 5775 5775 5773 5773 5772 5771 5769 5768 5766 5765 5764 5763 5762 5761 5760 5760 5759
5833 5804 5814 5835 5840 5837 5841 5839 5835 5825 5817 5812 5812 5813 5813 5808 5801 5792 5787 5783 5781 5781 5782 5783 5782 5780 5779 5779 5777 5776 5776 5775 5774 5774 5772 5771 5770 5769 5768 5767 5766 5764 5763 5762 5761 5760 5760 5759 5759
5839 5826 5840 5851 5857 5853 5844 5842 5843 5824 5809 5813 5811 5810 5811 5806 5800 5795 5791 5789 5787 5786 5786 5785 5784 5783 5781 5780 5778 5776 5776 5775 5774 5773 5772 5771 5770 5768 5767 5766 5765 5764 5762 5761 5761 5760 5759 5759 5758
5846 5850 5855 5857 5861 5856 5849 5846 5839 5833 5827 5832 5829 5823 5816 5807 5802 5798 5795 5793 5792 5789 5788 5788 5787 5785 5784 5782 5780 5778 5776 5775 5775 5774 5773 5771 5769 5768 5767 5765 5765 5763 5762 5761 5761 5760 5759 5759 5758
5849 5852 5862 5865 5863 5859 5854 5845 5840 5835 5839 5838 5832 5825 5817 5811 5807 5804 5802 5799 5796 5792 5791 5791 5790 5788 5786 5784 5781 5780 5778 5777 5776 5774 5773 5772 5770 5768 5767 5766 5765 5763 5762 5761 5761 5760 5759 5759 5758
5853 5856 5859 5861 5858 5858 5848 5842 5839 5834 5841 5835 5829 5823 5820 5815 5811 5806 5802 5799 5797 5796 5794 5794 5792 5791 5789 5786 5784 5782 5781 5779 5777 5776 5775 5773 5772 5770 5768 5766 5764 5763 5762 5762 5761 5760 5759 5759 5759
5859 5847 5848 5854 5854 5852 5847 5828 5833 5841 5841 5832 5828 5824 5821 5819 5816 5811 5808 5804 5802 5800 5798 5797 5795 5793 5791 5789 5787 5785 5783 5781 5779 5777 5776 5774 5772 5771 5769 5766 5764 5763 5763 5762 5761 5760 5760 5760 5760
5844 5829 5820 5842 5852 5851 5835 5809 5833 5843 5838 5828 5827 5825 5822 5820 5820 5818 5814 5810 5807 5804 5801 5800 5799 5795 5793 5791 5790 5788 5786 5784 5782 5780 5778 5776 5774 5772 5769 5767 5765 5765 5764 5763 5761 5760 5759 5758 5758
5818 5805 5810 5830 5851 5849 5834 5816 5834 5842 5837 5828 5826 5825 5823 5820 5821 5821 5819 5815 5811 5808 5804 5801 5800 5796 5794 5792 5791 5789 5787 5785 5783 5781 5779 5777 5775 5773 5771 5769 5767 5766 5764 5763 5763 5760 5759 5757 5756
5799 5804 5811 5821 5842 5842 5830 5825 5835 5840 5837 5830 5829 5826 5823 5822 5823 5826 5823 5819 5815 5811 5807 5804 5801 5798 5796 5793 5791 5788 5786 5785 5784 5782 5781 5779 5776 5774 5772 5770 5769 5767 5765 5763 5762 5760 5759 5757 5757
5817 5810 5809 5824 5845 5838 5829 5827 5831 5836 5833 5829 5827 5826 5825 5823 5827 5828 5825 5822 5817 5813 5809 5805 5802 5799 5797 5792 5788 5785 5783 5783 5783 5783 5782 5780 5778 5776 5774 5772 5769 5768 5765 5764 5763 5760 5758 5756 5756
5819 5808 5810 5825 5843 5836 5823 5822 5831 5835 5834 5834 5831 5828 5826 5823 5822 5825 5825 5822 5818 5814 5811 5808 5805 5802 5799 5796 5792 5789 5787 5785 5784 5784 5783 5781 5779 5777 5776 5773 5770 5769 5766 5764 5763 5760 5757 5756 5756
5814 5809 5813 5818 5831 5832 5818 5805 5816 5830 5836 5835 5835 5834 5832 5828 5824 5824 5824 5822 5819 5816 5813 5811 5807 5804 5801 5798 5794 5790 5786 5784 5782 5782 5781 5782 5780 5778 5777 5775 5773 5770 5768 5765 5764 5762 5758 5754 5754
5805 5827 5828 5825 5810 5796 5806 5774 5799 5817 5821 5826 5828 5829 5829 5830 5827 5825 5824 5822 5821 5819 5818 5814 5810 5806 5802 5799 5794 5789 5784 5780 5781 5782 5782 5782 5781 5779 5778 5776 5774 5772 5770 5767 5765 5764 5761 5757 5752
5821 5837 5830 5825 5808 5793 5796 5777 5786 5807 5807 5817 5825 5828 5829 5831 5830 5827 5827 5826 5825 5822 5818 5814 5810 5806 5803 5800 5796 5791 5786 5784 5783 5782 5781 5780 5780 5779 5777 5776 5774 5772 5770 5767 5766 5764 5762 5759 5755
5837 5828 5817 5803 5786 5769 5786 5777 5776 5795 5808 5817 5823 5828 5830 5831 5832 5829 5830 5827 5823 5820 5817 5813 5808 5805 5803 5800 5796 5792 5788 5784 5782 5780 5779 5778 5777 5777 5776 5775 5773 5771 5769 5767 5765 5764 5761 5759 5757
5823 5791 5763 5760 5749 5757 5784 5778 5779 5811 5823 5824 5825 5827 5829 5830 5828 5826 5824 5822 5819 5817 5815 5811 5807 5804 5803 5799 5796 5793 5790 5787 5783 5781 5779 5777 5775 5774 5774 5774 5771 5770 5768 5767 5765 5763 5761 5759 5756
5810 5791 5758 5745 5742 5755 5775 5771 5790 5819 5828 5829 5829 5829 5828 5825 5826 5825 5825 5824 5820 5816 5814 5811 5807 5805 5803 5800 5797 5794 5792 5789 5786 5783 5781 5778 5776 5775 5774 5772 5770 5769 5767 5766 5763 5761 5760 5758 5756
5806 5793 5791 5766 5759 5750 5758 5774 5796 5814 5815 5816 5818 5819 5819 5820 5822 5821 5822 5821 5819 5816 5814 5812 5808 5805 5803 5801 5797 5794 5791 5788 5786 5783 5781 5779 5778 5776 5774 5771 5769 5767 5765 5764 5761 5759 5757 5757 5755
5817 5805 5777 5759 5742 5734 5750 5762 5770 5792 5799 5806 5808 5809 5811 5815 5818 5819 5819 5818 5817 5815 5813 5811 5808 5804 5803 5801 5797 5793 5789 5787 5784 5782 5779 5778 5777 5775 5772 5770 5768 5766 5764 5761 5759 5756 5755 5754 5752
5801 5795 5778 5757 5752 5735 5731 5752 5796 5796 5802 5803 5805 5808 5807 5809 5812 5814 5814 5816 5814 5812 5810 5808 5804 5802 5800 5798 5795 5792 5788 5784 5782 5779 5777 5775 5774 5773 5770 5768 5766 5764 5761 5759 5756 5754 5753 5750 5749
5802 5790 5772 5752 5747 5744 5737 5753 5804 5804 5805 5805 5803 5804 5805 5805 5807 5808 5808 5809 5808 5806 5805 5806 5803 5802 5799 5796 5792 5788 5785 5782 5779 5777 5775 5773 5771 5770 5768 5766 5763 5761 5758 5756 5754 5752 5750 5748 5746